Location: Choisy
(48.7685°N, 2.4187°E)
Time: 03:54:43
(UTC+00:00)

BlueWalker 3 - Pass Details

Date: 02 March 2024
Orbit: 485 x 495 km, 53.2° (Epoch: 24 April)

Event Time Altitude Azimuth Distance (km) Brightness Sun altitude
Rises 19:02:10 0° 295° (WNW) 2,564 7.0 -14.9°
Reaches altitude 10° 19:04:21 10° 293° (WNW) 1,677 5.8 -15.3°
Maximum altitude 19:08:07 69° 210° (SSW) 524 2.0 -15.9°
Enters shadow 19:09:52 29° 134° (SE) 910 2.8 -16.2°
